Weather in Krasnoyarikha

Russia / Samara Oblast     54°17′28″N   50°51′26″E
temp.,
°C
wind,
m/s
gust,
m/s
humid.,
%
clouds,
%
prec.,
mm/h
press.,
hPa
HPBL,
m
19 january, wed
wed1901:00−2ssw81795100 0.4 1013828
04:00−3ssw71596100 0.8 1014662
07:00−3s71495100 0.9 1014497
10:00−3s61496100 1.4 1015537
13:00−2s71494100 0.4 1016631
16:00−3s71395100 0.8 1016570
19:00−3s71493100 0.5 1017548
22:00−3s61194100 0.6 1018386
20 january, thu
thu2001:00−4s51094100 0.0 1018365
04:00−5s4995100 0.2 1019302
07:00−5s4796100 0.1 1020261
10:00−6s5995100 0.2 1020329
13:00−6s5109499 0.2 1021353
16:00−8sse5109365 0.2 1021248
19:00−11sse4119522 0.0 1021177
22:00−13sse4109567 0.0 1021179
21 january, fri
fri2101:00−14sse399658 0.0 1022143
04:00−15sse379779 0.1 1022104
07:00−15sse389768 0.0 1022118
10:00−15se38969 0.1 1023125
13:00−12sse4119559 0.0 1022252
16:00−11se4109466 0.0 1022244
19:00−11se5129356 0.0 1022256
22:00−11se51390100 0.0 1022261
22 january, sat
sat2201:00−11se61291100 0.0 1022294
04:00−10se61293100 0.1 1021331
07:00−10se61293100 0.0 1021334
10:00−10se61393100 0.0 1022329
13:00−9se61293100 0.0 1023367
16:00−8se61293100 0.1 1023405
19:00−8se61293100 0.1 1024338
22:00−9se51193100 0.2 1026279
23 january, sun
sun2301:00−8sse51293100 0.1 1026307
04:00−9se51293100 0.2 1028276
07:00−9se61293100 0.3 1029302
10:00−9sse51187100 0.4 1030285
13:00−8sse41093100 0.3 1031300
16:00−8se3893100 1.3 1032276
19:00−8se4991100 0.0 1033223
22:00−8se3889100 0.0 1034246